Location: Baumgartsau
(48.4586°N, 14.0864°E)
Time: 17:40:05
(UTC+00:00)

BREEZE M DEB (TANK) - Pass Details

Date: 18 May 2021
Orbit: 296 x 11843 km, 49.5° (Epoch: 14 June)

Event Time Altitude Azimuth Distance (km) Brightness Sun altitude
Rises 23:30:19 0° 299° (WNW) 7,841 8.4 -21.4°
Reaches altitude 10° 23:36:29 10° 286° (WNW) 8,137 8.3 -21.3°
Maximum altitude 23:59:01 22° 249° (WSW) 10,869 8.5 -20.5°
Enters shadow 00:36:32 13° 221° (SW) 15,165 9.0 -18.4°
